Flag for Canada Weather past 2 weeks in Moose Jaw, Saskatchewan, Canada

43 °F

Drizzle. Fog.

Feels Like: 35 °F
Forecast: 36 / 52 °F
Wind: 15 mph from Northwest

Location: Regina Weather Station

Current Time: Oct 4, 2015 at 10:59:22 PM

Latest Report: Oct 4, 2015 at 9:00 PM

Visibility: 4 mi

Pressure: 30.10 "Hg (28.10 "Hg at 560m altitude)

Humidity: 93%

Dew point: 41 °F

Location of Moose JawLocation

Historic Weather in Moose Jaw — Graph


Moose Jaw temperature yesterday

Maximum temperature yesterday: 50 °F (at 1:00 PM)
Minimum temperature yesterday: 43 °F (at 7:00 AM)
Average temperature yesterday: 46 °F

Past Weeks' High & Low Weather Summary

High84 °F (Sep 25, 4:00 PM)100% (Sep 22, 2:00 AM)30.29 "Hg (Sep 22, 2:00 AM)
Low27 °F (Sep 22, 5:00 AM)30% (Sep 27, 3:00 PM)29.49 "Hg (Sep 21, 4:00 AM)
Average52 °F73%30.04 "Hg
* Reported Sep 19 9:00 PM — Oct 4 9:00 PM, Moose Jaw, Weather by CustomWeather, © 2015

Note: Actual official high and low records may vary slightly from our data, if they occured in-between our weather recording intervals... More about our weather records


Moose Jaw weather history for previous 24 hours

Time TempWeatherWind HumidityBarometerVisibility
9:00 PM
Sun, Oct 4
43 °FDrizzle. Fog.15 mph93%30.10 "Hg4 mi
8:00 PM43 °FDrizzle. Fog.13 mph100%30.09 "Hg3 mi
7:00 PM45 °FDrizzle. Fog.14 mph100%30.08 "Hg5 mi
6:00 PM48 °FPartly sunny.5 mph87%30.07 "Hg15 mi
5:00 PM48 °FOvercast.7 mph87%30.07 "Hg15 mi
4:00 PM48 °FOvercast.7 mph87%30.07 "Hg15 mi
3:00 PM48 °FLow clouds.8 mph87%30.07 "Hg15 mi
2:00 PM48 °FMostly cloudy.8 mph87%30.08 "Hg15 mi
1:00 PM48 °FLight rain. Fog.3 mph94%30.09 "Hg3 mi
12:00 PM46 °FLight rain. Fog.2 mph93%30.10 "Hg5 mi
11:00 AM46 °FLight rain. Fog.3 mph100%30.10 "Hg5 mi
10:00 AM46 °FLight rain. Low clouds.6 mph93%30.11 "Hg15 mi
9:00 AM45 °FLight rain. Low clouds.7 mph100%30.10 "Hg10 mi
8:00 AM45 °FLight rain. Low clouds.8 mph100%30.10 "Hg10 mi
7:00 AM45 °FLight rain. Low clouds.7 mph100%30.10 "Hg15 mi
6:00 AM45 °FLight rain. Low clouds.12 mph100%30.11 "Hg12 mi
5:00 AM45 °FLight rain. Low clouds.10 mph100%30.11 "Hg12 mi
4:00 AM45 °FLight rain. Low clouds.12 mph100%30.12 "Hg12 mi
3:00 AM45 °FLight rain. Mostly cloudy.13 mph100%30.12 "Hg12 mi
2:00 AM45 °FLight rain. Mostly cloudy.16 mph100%30.13 "Hg12 mi
1:00 AM46 °FLight rain. Mostly cloudy.15 mph93%30.14 "Hg12 mi
12:00 AM46 °FLight rain. Mostly cloudy.18 mph93%30.16 "Hg10 mi
11:00 PM
Sat, Oct 3
46 °FLight rain. Mostly cloudy.15 mph93%30.16 "Hg12 mi
10:00 PM46 °FLight rain. Low clouds.13 mph93%30.17 "Hg12 mi
Weather by CustomWeather, © 2015

See weather overviewHow to use our weather pages